Simultaneous Nadir Overpasses (SNOs) Predictions

Prediction of SNOs between NOAA-20 and LANDSAT-8 Satellite Orbit:

Table of predicted SNOs for the next 14.0 days since TLE Epoch: 10/26/2024
Index Date (NOAA-20) Time (NOAA-20) Lat,Lon (NOAA-20) SZA (NOAA-20 ) Date (LANDSAT-8) Time (LANDSAT-8) Lat,Lon (LANDSAT-8) SZA (LANDSAT-8 ) Distance(km) Time Diff (sec)
1 10/26/2024 07:34:34 70.00, 62.49 82.54 10/26/2024 07:35:32 70.00, 62.43 82.53 2.20 58
2 10/26/2024 08:25:15 -69.89,-130.02 97.57 10/26/2024 08:25:02 -69.89,-130.09 97.57 2.81 13
3 10/26/2024 09:15:48 69.16, 38.34 81.72 10/26/2024 09:14:39 69.23, 36.66 81.78 66.84 69
4 10/28/2024 23:51:29 69.97, 178.30 83.40 10/28/2024 23:51:59 69.96, 178.26 83.39 2.27 30
5 10/29/2024 00:42:10 -69.85, -14.20 96.71 10/29/2024 00:41:29 -69.85, -14.25 96.72 2.05 41
6 10/31/2024 15:17:43 -70.25, 126.33 95.46 10/31/2024 15:18:55 -70.19, 126.85 95.52 20.96 72
7 10/31/2024 16:08:23 69.91, -65.83 84.21 10/31/2024 16:08:25 69.91, -65.90 84.21 2.68 2
8 10/31/2024 16:59:05 -69.84, 101.59 95.85 10/31/2024 16:57:54 -69.86, 101.66 95.84 3.47 71
9 11/03/2024 07:34:33 -69.99,-117.50 94.87 11/03/2024 07:35:23 -69.98,-117.55 94.89 2.68 50
10 11/03/2024 08:25:18 69.91, 49.93 85.06 11/03/2024 08:24:49 69.91, 50.00 85.06 2.92 29
11 11/03/2024 09:15:42 -68.89,-141.29 95.96 11/03/2024 09:14:35 -68.93,-143.68 95.92 95.69 67
12 11/05/2024 23:00:57 70.71,-170.19 86.66 11/05/2024 23:02:05 70.63,-168.33 86.58 69.20 68
13 11/05/2024 23:51:26 -69.96, -1.68 94.09 11/05/2024 23:51:45 -69.98, -1.64 94.08 2.63 19
14 11/06/2024 00:42:10 69.82, 165.82 85.79 11/06/2024 00:41:12 69.86, 165.83 85.82 3.55 58
15 11/08/2024 15:17:38 70.02, -53.32 86.74 11/08/2024 15:18:38 70.02, -53.30 86.75 1.05 60
16 11/08/2024 16:08:19 -69.89, 114.19 93.38 11/08/2024 16:08:08 -69.92, 114.19 93.35 3.59 11
17 11/08/2024 16:58:53 69.23, -77.54 85.97 11/08/2024 16:57:44 69.30, -79.01 86.04 58.51 69



Historial Predications of SNOs between NOAA-20 and LANDSAT-8
